Weather in Tepic

Mexico     21°30′14″N   104°53′39″W
temp.,
°C
wind,
m/s
gust,
m/s
humid.,
%
clouds,
%
prec.,
mm/h
press.,
hPa
HPBL,
m
9 august, tue
tue900:00+21sse1199100 0.7 101526
03:00+20sse1198100 0.2 101412
06:00+20e1196100 0.3 101423
09:00+22ene1288100 0.1 1015123
12:00+27wnw1159100 0.1 1014797
15:00+30wnw2244100 0.0 10121543
18:00+26w2168100 0.0 1011536
21:00+20ene119728 0.3 101421
10 august, wed
wed1000:00+20ese00928 0.3 101411
03:00+19ese119791 0.9 101422
06:00+18ese2197100 2.4 101537
09:00+24e117739 0.0 1015254
12:00+30wnw225010 0.0 10131570
15:00+26w2287100 2.1 1013723
18:00+25w238498 2.8 1011580
21:00+22wsw1210099 4.8 1014143
11 august, thu
thu1100:00+20n12100100 42.5 1013171
03:00+18sse2499100 44.1 1014118
06:00+19ese2297100 44.6 101445
09:00+23e127677 0.0 1015143
12:00+30wnw2248100 0.0 10131454
15:00+29w3257100 0.1 10121301
18:00+24sw2378100 0.6 1013588
21:00+21se009599 0.2 101415
12 august, fri
fri1200:00+20e1195100 0.4 101633
03:00+20ese1193100 1.3 101435
06:00+20e1192100 1.6 101336
09:00+24wsw117183 0.1 1014414
12:00+29nw225179 0.1 10131474
15:00+29wnw2259100 0.5 10121396
18:00+22sw249774 2.6 1013299
21:00+21ssw1199100 2.4 101587
13 august, sat
sat1300:00+20se1199100 3.6 101529
03:00+20ese229882 2.1 101555
06:00+19ese119758 3.5 101414
09:00+24n018274 0.2 1016395
12:00+27wnw216699 0.4 10151353
15:00+23wnw1294100 1.9 1014324
18:00+22w1399100 6.4 1014158
21:00+21s1199100 1.4 101528